Home   Weather   Altdorf   Past weeks

Flag for Switzerland Past Weather in Altdorf, Uri, Switzerland — Yesterday and Last 2 Weeks

Now
63 °F

Mild.


Feels Like: 63 °F
Forecast: 55 / 79 °F
Wind: 3 mph from Southeast

Location: Altdorf

Current Time: Jul 28, 2017 at 5:01:21 am

Latest Report: Jul 28, 2017 at 4:00 am


Visibility: N/A

Pressure: 29.92 "Hg

Humidity: 92%

Dew Point: 60 °F

Location of AltdorfLocation

Past Weather in Altdorf — Graph

°F

Altdorf Temperature Yesterday

Maximum temperature yesterday: 71 °F (at 4:00 pm)
Minimum temperature yesterday: 52 °F (at 3:00 am)
Average temperature yesterday: 61 °F

High & Low Weather Summary for the Past Weeks

 TemperatureHumidityPressure
High84 °F (Jul 19, 3:00 pm)97% (Jul 26, 3:00 am)30.29 "Hg (Jul 26, 3:00 am)
Low52 °F (Jul 16, 6:00 am)42% (Jul 19, 4:00 pm)29.76 "Hg (Jul 21, 5:00 pm)
Average65 °F76%30.00 "Hg
* Reported Jul 13 3:00 am — Jul 28 3:00 am, Altdorf. Weather by CustomWeather, © 2017

Note: Actual official high and low records may vary slightly from our data, if they occured in-between our weather recording intervals... More about our weather records

Advertising

Altdorf Weather History for the Previous 24 Hours

Scroll right to see more
 ConditionsComfort  
Time TempWeatherWind HumidityBarometerVisibility
3:00 am
Fri, Jul 28
64 °FMild.2 mph82%29.92 "HgN/A
2:00 am66 °FOvercast.8 mph79%29.91 "Hg12 mi
1:00 am64 °FMild.1 mph85%29.88 "HgN/A
12:00 am62 °FCool.1 mph90%29.88 "HgN/A
11:00 pm
Thu, Jul 27
64 °FMild.2 mph86%29.89 "HgN/A
10:00 pm65 °FMild.No wind84%29.88 "HgN/A
9:00 pm65 °FMild.2 mph85%29.87 "HgN/A
8:00 pm67 °FOvercast.1 mph86%29.85 "Hg12 mi
7:00 pm69 °FMild.2 mph64%29.83 "HgN/A
6:00 pm69 °FMild.2 mph66%29.83 "HgN/A
5:00 pm69 °FOvercast.3 mph64%29.84 "Hg12 mi
4:00 pm71 °FMild.2 mph65%29.85 "HgN/A
3:00 pm67 °FMild.3 mph63%29.87 "HgN/A
2:00 pm66 °FOvercast.1 mph67%29.89 "Hg12 mi
1:00 pm63 °FMild.6 mph77%29.92 "HgN/A
12:00 pm63 °FMild.5 mph74%29.93 "HgN/A
11:00 am62 °FOvercast.2 mph71%29.96 "Hg6 mi
10:00 am60 °FCool.1 mph78%29.98 "HgN/A
9:00 am59 °FCool.1 mph83%29.96 "HgN/A
8:00 am58 °FOvercast.No wind91%29.95 "Hg16 mi
7:00 am57 °FCool.1 mph81%29.95 "HgN/A
6:00 am55 °FCool.2 mph86%29.96 "HgN/A
5:00 am55 °FPassing clouds.1 mph85%29.96 "Hg16 mi
Weather by CustomWeather, © 2017

See weather overviewHow to use our weather pages